Flag for USA

Past Weather in Muncie, Indiana, USA — Yesterday and Last 2 Weeks

Now
47 °F

Clear.


Feels Like: 47 °F
Forecast: 72 / 42 °F
Wind: No wind

Location: Delaware County-Johnson Field
Current Time: Sep 20, 2020 at 1:40:34 am
Latest Report: Sep 20, 2020 at 12:53 am
Visibility: 10 mi
Pressure30.35 "Hg
Humidity: 71%
Dew Point: 38 °F
Location of MuncieLocation

Past Weather in Muncie — Graph

°F

Muncie Temperature Yesterday

Maximum temperature yesterday: 70 °F (at 4:53 pm)
Minimum temperature yesterday: 39 °F (at 5:53 am)
Average temperature yesterday: 53 °F

High & Low Weather Summary for the Past Weeks

 TemperatureHumidityPressure
High89 °F (Sep 8, 3:53 pm)94% (Sep 9, 4:01 am)30.38 "Hg (Sep 9, 4:01 am)
Low39 °F (Sep 19, 5:53 am)22% (Sep 16, 3:53 pm)29.82 "Hg (Sep 7, 1:53 pm)
Average68 °F71%30.13 "Hg
* Reported Sep 4 11:53 pm — Sep 19 11:53 pm, Muncie. Weather by CustomWeather, © 2020

Note: Actual official high and low records may vary slightly from our data, if they occured in-between our weather recording intervals... More about our weather records

Muncie Weather History for the Previous 24 Hours

Scroll right to see more
 ConditionsComfort  
Time TempWeatherWind HumidityBarometerVisibility
11:53 pm
Sat, Sep 19
47 °FClear.3 mph74%30.34 "Hg10 mi
10:53 pm50 °FClear.3 mph66%30.32 "Hg10 mi
9:53 pm49 °FClear.5 mph71%30.31 "Hg10 mi
8:53 pm51 °FClear.6 mph66%30.30 "Hg10 mi
7:53 pm58 °FClear.7 mph47%30.29 "Hg10 mi
6:53 pm66 °FSunny.8 mph33%30.28 "Hg10 mi
5:53 pm69 °FSunny.13 mph29%30.28 "Hg10 mi
4:53 pm70 °FSunny.8 mph28%30.29 "Hg10 mi
3:53 pm69 °FSunny.6 mph27%30.31 "Hg10 mi
2:53 pm68 °FSunny.9 mph31%30.32 "Hg10 mi
1:53 pm67 °FSunny.9 mph36%30.34 "Hg10 mi
12:53 pm64 °FSunny.7 mph43%30.36 "Hg10 mi
11:53 am62 °FPassing clouds.12 mph50%30.38 "Hg10 mi
10:53 am58 °FSunny.12 mph60%30.38 "Hg10 mi
9:53 am54 °FSunny.5 mph67%30.38 "Hg10 mi
8:53 am47 °FSunny.3 mph77%30.37 "Hg10 mi
7:53 am40 °FSunny.5 mph83%30.36 "Hg10 mi
6:53 am39 °FClear.No wind82%30.35 "Hg10 mi
5:53 am39 °FClear.5 mph82%30.33 "Hg10 mi
4:53 am40 °FClear.6 mph83%30.34 "Hg10 mi
3:53 am41 °FClear.No wind80%30.34 "Hg10 mi
2:53 am41 °FClear.No wind82%30.35 "Hg10 mi
1:53 am43 °FClear.3 mph79%30.34 "Hg10 mi
Weather by CustomWeather, © 2020

See weather overview